| time (UTC) | temp F | wind direction | speed knots | gust knots | rain 1hr in | rain 24hr in | rain mn in | humidity % | barometer mb |
| 20260906140519 | 81 | 66 | 0.0 | 1.7 | 0.00 | 0.12 | 0.10 | 78 | 1012.9 |
| 20260906135554 | 80 | 66 | 0.0 | 0.9 | 0.00 | 0.12 | 0.10 | 78 | 1012.9 |
| 20260906134651 | 79 | 66 | 0.9 | 1.7 | 0.00 | 0.12 | 0.10 | 80 | 1013.0 |
| 20260906133526 | 78 | 65 | 0.9 | 1.7 | 0.00 | 0.12 | 0.10 | 83 | 1013.2 |
| 20260906132522 | 77 | 66 | 0.0 | 0.9 | 0.00 | 0.12 | 0.10 | 85 | 1013.4 |
| 20260906131517 | 76 | 66 | 0.9 | 1.7 | 0.00 | 0.12 | 0.10 | 87 | 1013.5 |
| 20260906130533 | 75 | 66 | 0.0 | 0.9 | 0.00 | 0.12 | 0.10 | 89 | 1013.5 |
| 20260906125549 | 74 | 66 | 0.0 | 0.9 | 0.00 | 0.12 | 0.10 | 91 | 1013.6 |
| 20260906124524 | 73 | 66 | 0.0 | 0.9 | 0.00 | 0.12 | 0.10 | 93 | 1013.5 |
| 20260906123520 | 73 | 0.0 | 0.0 | 0.00 | 0.12 | 0.10 | 93 | 1013.4 | |
| 20260906122556 | 72 | 65 | 0.0 | 0.9 | 0.00 | 0.12 | 0.10 | 93 | 1013.5 |
| 20260906121533 | 72 | 0.0 | 0.0 | 0.00 | 0.12 | 0.10 | 94 | 1013.5 | |
| 20260906120529 | 72 | 0.0 | 0.0 | 0.00 | 0.12 | 0.10 | 94 | 1013.5 | |
| 20260906115525 | 72 | 0.0 | 0.0 | 0.00 | 0.12 | 0.10 | 93 | 1013.6 | |
| 20260906114521 | 72 | 65 | 0.0 | 1.7 | 0.00 | 0.12 | 0.10 | 93 | 1013.7 |
| 20260906113517 | 72 | 65 | 0.0 | 0.9 | 0.00 | 0.12 | 0.10 | 92 | 1013.5 |
| 20260906112553 | 72 | 65 | 0.0 | 0.9 | 0.00 | 0.12 | 0.10 | 93 | 1013.3 |
| 20260906111529 | 72 | 65 | 0.9 | 1.7 | 0.00 | 0.12 | 0.10 | 92 | 1013.2 |
| 20260906110524 | 72 | 65 | 0.0 | 0.9 | 0.00 | 0.12 | 0.10 | 93 | 1013.1 |
| 20260906105521 | 72 | 65 | 0.0 | 0.9 | 0.00 | 0.12 | 0.10 | 91 | 1013.1 |
| 20260906104517 | 72 | 65 | 0.0 | 0.9 | 0.00 | 0.12 | 0.10 | 91 | 1012.8 |
| 20260906103533 | 72 | 67 | 0.9 | 1.7 | 0.00 | 0.12 | 0.10 | 91 | 1012.5 |
| 20260906102548 | 72 | 67 | 0.0 | 0.9 | 0.00 | 0.12 | 0.10 | 91 | 1012.6 |
| 20260906101525 | 72 | 0.0 | 0.0 | 0.00 | 0.12 | 0.10 | 92 | 1012.6 | |
| 20260906100520 | 72 | 0.0 | 0.0 | 0.00 | 0.12 | 0.10 | 91 | 1012.3 | |
| 20260906095517 | 72 | 0.0 | 0.0 | 0.00 | 0.12 | 0.10 | 91 | 1012.3 | |
| 20260906094532 | 72 | 67 | 0.0 | 1.7 | 0.00 | 0.12 | 0.10 | 92 | 1012.2 |
| 20260906093528 | 72 | 67 | 0.9 | 0.9 | 0.00 | 0.12 | 0.10 | 89 | 1012.1 |
| 20260906092524 | 73 | 67 | 0.0 | 0.9 | 0.00 | 0.12 | 0.10 | 89 | 1012.3 |
| 20260906091520 | 73 | 67 | 0.9 | 0.9 | 0.00 | 0.12 | 0.10 | 89 | 1012.3 |
| 20260906090516 | 73 | 43 | 0.9 | 2.6 | 0.00 | 0.12 | 0.10 | 87 | 1012.2 |
| 20260906085533 | 73 | 310 | 0.9 | 1.7 | 0.00 | 0.12 | 0.10 | 85 | 1012.6 |
| 20260906084529 | 73 | 47 | 0.9 | 3.5 | 0.00 | 0.12 | 0.10 | 85 | 1012.1 |
| 20260906083525 | 73 | 64 | 1.7 | 6.1 | 0.00 | 0.11 | 0.10 | 85 | 1011.7 |
| 20260906082540 | 73 | 129 | 0.9 | 2.6 | 0.01 | 0.11 | 0.10 | 87 | 1012.0 |
| 20260906081537 | 73 | 110 | 0.9 | 6.1 | 0.05 | 0.11 | 0.10 | 89 | 1012.2 |
| 20260906080533 | 73 | 117 | 0.0 | 1.7 | 0.05 | 0.11 | 0.10 | 89 | 1012.5 |
| 20260906075528 | 73 | 77 | 4.3 | 8.7 | 0.10 | 0.11 | 0.10 | 93 | 1012.9 |
| 20260906074524 | 73 | 57 | 0.9 | 3.5 | 0.10 | 0.11 | 0.10 | 93 | 1013.2 |
| 20260906073520 | 74 | 14 | 1.7 | 11.3 | 0.10 | 0.11 | 0.10 | 93 | 1013.4 |
| 20260906072517 | 75 | 27 | 1.7 | 7.8 | 0.09 | 0.11 | 0.09 | 91 | 1013.5 |
| 20260906071533 | 76 | 64 | 2.6 | 7.0 | 0.05 | 0.07 | 0.05 | 89 | 1013.5 |
| 20260906070529 | 77 | 7 | 0.9 | 7.0 | 0.05 | 0.06 | 0.05 | 83 | 1013.3 |
| 20260906065525 | 78 | 54 | 0.9 | 1.7 | 0.00 | 0.02 | 0.00 | 79 | 1013.0 |
| 20260906064521 | 79 | 77 | 0.9 | 1.7 | 0.00 | 0.02 | 0.00 | 78 | 1013.1 |
| 20260906063516 | 80 | 57 | 0.9 | 2.6 | 0.00 | 0.02 | 0.00 | 77 | 1012.9 |
| 20260906062532 | 80 | 54 | 0.0 | 3.5 | 0.00 | 0.02 | 0.00 | 74 | 1012.9 |
| 20260906061528 | 81 | 158 | 1.7 | 7.0 | 0.00 | 0.02 | 0.00 | 69 | 1012.8 |
| 20260906060524 | 81 | 258 | 1.7 | 6.1 | 0.00 | 0.02 | 0.00 | 70 | 1012.1 |
| 20260906055520 | 81 | 116 | 1.7 | 7.0 | 0.00 | 0.02 | 0.00 | 74 | 1012.3 |
| 20260906054516 | 81 | 51 | 1.7 | 6.1 | 0.00 | 0.02 | 0.00 | 79 | 1012.7 |
| 20260906053532 | 80 | 101 | 0.0 | 0.9 | 0.00 | 0.02 | 0.00 | 82 | 1012.7 |
| 20260906052528 | 80 | 50 | 1.7 | 5.2 | 0.00 | 0.02 | 0.00 | 83 | 1012.7 |
| 20260906051544 | 79 | 0.0 | 0.0 | 0.00 | 0.02 | 0.00 | 91 | 1012.7 | |
| 20260906050540 | 79 | 0.0 | 0.0 | 0.00 | 0.02 | 0.00 | 88 | 1012.2 | |
| 20260906045535 | 79 | 0.0 | 0.0 | 0.00 | 0.02 | 0.02 | 88 | 1012.0 | |
| 20260906044531 | 79 | 0.0 | 0.0 | 0.00 | 0.02 | 0.02 | 88 | 1012.4 | |
| 20260906043527 | 79 | 0.0 | 0.0 | 0.00 | 0.02 | 0.02 | 88 | 1012.4 | |
| 20260906042523 | 79 | 5 | 0.0 | 0.9 | 0.00 | 0.02 | 0.02 | 88 | 1012.5 |
| 20260906041518 | 79 | 0 | 0.0 | 0.9 | 0.00 | 0.02 | 0.02 | 88 | 1012.6 |
| 20260906040534 | 79 | 359 | 0.0 | 0.9 | 0.00 | 0.02 | 0.02 | 88 | 1012.5 |
| 20260906035530 | 79 | 0.0 | 0.0 | 0.00 | 0.02 | 0.02 | 87 | 1012.8 | |
| 20260906034526 | 79 | 0 | 0.0 | 0.9 | 0.00 | 0.02 | 0.02 | 87 | 1012.6 |
| 20260906033522 | 79 | 4 | 0.0 | 0.9 | 0.00 | 0.02 | 0.02 | 86 | 1012.6 |
| 20260906032538 | 79 | 5 | 0.0 | 0.9 | 0.00 | 0.02 | 0.02 | 86 | 1012.7 |
| 20260906031553 | 80 | 1 | 0.0 | 0.9 | 0.00 | 0.02 | 0.02 | 85 | 1012.5 |
| 20260906030529 | 80 | 0.0 | 0.0 | 0.00 | 0.02 | 0.02 | 86 | 1012.4 | |
| 20260906025525 | 80 | 1 | 0.0 | 0.9 | 0.00 | 0.02 | 0.02 | 86 | 1012.4 |
| 20260906024520 | 80 | 19 | 0.9 | 2.6 | 0.00 | 0.02 | 0.02 | 86 | 1012.4 |
| 20260906023516 | 80 | 25 | 0.0 | 0.9 | 0.00 | 0.02 | 0.02 | 85 | 1012.2 |
| 20260906022531 | 80 | 32 | 0.9 | 2.6 | 0.00 | 0.02 | 0.02 | 86 | 1012.1 |
| 20260906021527 | 80 | 56 | 0.0 | 0.9 | 0.00 | 0.02 | 0.02 | 84 | 1012.0 |
| 20260906020523 | 80 | 56 | 0.0 | 0.9 | 0.00 | 0.02 | 0.02 | 83 | 1011.8 |
| 20260906015519 | 80 | 0.0 | 0.0 | 0.00 | 0.02 | 0.02 | 83 | 1011.7 | |
| 20260906014554 | 80 | 0.0 | 0.0 | 0.00 | 0.02 | 0.02 | 82 | 1011.6 | |
| 20260906013530 | 80 | 0.0 | 0.0 | 0.00 | 0.02 | 0.02 | 82 | 1011.4 | |
| 20260906012525 | 80 | 0.0 | 0.0 | 0.00 | 0.02 | 0.02 | 82 | 1011.3 | |
| 20260906011520 | 80 | 56 | 0.0 | 0.9 | 0.00 | 0.02 | 0.02 | 81 | 1011.3 |
| 20260906010536 | 80 | 65 | 0.0 | 0.9 | 0.00 | 0.02 | 0.02 | 81 | 1011.2 |
| 20260906005532 | 80 | 0.0 | 0.0 | 0.00 | 0.02 | 0.02 | 81 | 1011.2 | |
| 20260906004528 | 80 | 0.0 | 0.0 | 0.02 | 0.02 | 0.02 | 80 | 1011.2 | |
| 20260906003544 | 80 | 77 | 0.9 | 0.9 | 0.02 | 0.02 | 0.02 | 79 | 1011.1 |
| 20260906002540 | 80 | 76 | 0.0 | 0.9 | 0.02 | 0.02 | 0.02 | 79 | 1011.1 |
| 20260906001516 | 81 | 77 | 0.9 | 1.7 | 0.02 | 0.02 | 0.02 | 78 | 1011.4 |
| 20260906000532 | 82 | 70 | 1.7 | 3.5 | 0.02 | 0.02 | 0.02 | 75 | 1012.0 |
| 20260905235528 | 85 | 261 | 1.7 | 6.1 | 0.02 | 0.02 | 0.02 | 72 | 1012.3 |
| 20260905234524 | 90 | 277 | 3.5 | 12.2 | 0.00 | 0.00 | 0.00 | 65 | 1011.7 |
| 20260905233600 | 91 | 53 | 0.9 | 1.7 | 0.00 | 0.00 | 0.00 | 57 | 1011.3 |
| 20260905232535 | 93 | 77 | 1.7 | 6.1 | 0.00 | 0.00 | 0.00 | 55 | 1010.9 |
| 20260905231531 | 94 | 75 | 0.9 | 7.0 | 0.00 | 0.00 | 0.00 | 54 | 1010.8 |
| 20260905230527 | 95 | 297 | 0.9 | 3.5 | 0.00 | 0.00 | 0.00 | 53 | 1010.8 |
| 20260905225523 | 96 | 297 | 0.9 | 3.5 | 0.00 | 0.00 | 0.00 | 52 | 1010.5 |
| 20260905224519 | 97 | 299 | 0.0 | 0.9 | 0.00 | 0.00 | 0.00 | 50 | 1010.5 |
| 20260905223554 | 97 | 299 | 0.0 | 1.7 | 0.00 | 0.00 | 0.00 | 50 | 1010.7 |
| 20260905222530 | 97 | 299 | 0.9 | 2.6 | 0.00 | 0.00 | 0.00 | 49 | 1010.5 |
| 20260905221526 | 98 | 299 | 0.0 | 0.9 | 0.00 | 0.00 | 0.00 | 48 | 1010.6 |
| 20260905220522 | 98 | 299 | 0.0 | 0.9 | 0.00 | 0.00 | 0.00 | 48 | 1010.6 |
| 20260905215517 | 99 | 299 | 0.0 | 2.6 | 0.00 | 0.00 | 0.00 | 48 | 1010.7 |
| 20260905214534 | 99 | 299 | 0.9 | 2.6 | 0.00 | 0.00 | 0.00 | 48 | 1010.7 |
| 20260905213549 | 99 | 89 | 1.7 | 6.1 | 0.00 | 0.00 | 0.00 | 48 | 1010.7 |
| 20260905212525 | 99 | 336 | 0.9 | 1.7 | 0.00 | 0.00 | 0.00 | 49 | 1010.8 |
| 20260905211521 | 99 | 335 | 0.9 | 2.6 | 0.00 | 0.00 | 0.00 | 48 | 1010.7 |
| 20260905210516 | 99 | 336 | 0.9 | 2.6 | 0.00 | 0.00 | 0.00 | 48 | 1010.8 |
| 20260905205533 | 99 | 33 | 0.9 | 3.5 | 0.00 | 0.00 | 0.00 | 48 | 1010.7 |
| 20260905204548 | 99 | 281 | 1.7 | 6.1 | 0.00 | 0.00 | 0.00 | 48 | 1010.9 |
| 20260905203524 | 100 | 312 | 0.9 | 5.2 | 0.00 | 0.00 | 0.00 | 47 | 1011.1 |
| 20260905202520 | 101 | 272 | 1.7 | 2.6 | 0.00 | 0.00 | 0.00 | 47 | 1011.1 |
| 20260905201536 | 101 | 272 | 0.0 | 1.7 | 0.00 | 0.02 | 0.00 | 48 | 1011.4 |
| 20260905200532 | 100 | 272 | 1.7 | 6.1 | 0.00 | 0.10 | 0.00 | 48 | 1011.5 |
| 20260905195547 | 100 | 272 | 0.9 | 2.6 | 0.00 | 0.11 | 0.00 | 50 | 1011.8 |
| 20260905194522 | 100 | 282 | 0.9 | 2.6 | 0.00 | 0.11 | 0.00 | 48 | 1011.9 |
| 20260905193558 | 100 | 282 | 2.6 | 7.8 | 0.00 | 0.11 | 0.00 | 50 | 1012.0 |
| 20260905192554 | 100 | 291 | 0.9 | 5.2 | 0.00 | 0.11 | 0.00 | 50 | 1012.0 |
| 20260905191530 | 99 | 291 | 0.9 | 2.6 | 0.00 | 0.11 | 0.00 | 49 | 1012.2 |
| 20260905190546 | 99 | 291 | 1.7 | 5.2 | 0.00 | 0.11 | 0.00 | 50 | 1012.5 |
| 20260905185522 | 98 | 46 | 0.0 | 0.9 | 0.00 | 0.11 | 0.00 | 50 | 1012.5 |
| 20260905184518 | 98 | 312 | 1.7 | 6.1 | 0.00 | 0.11 | 0.00 | 53 | 1012.6 |
| 20260905183534 | 98 | 287 | 0.9 | 2.6 | 0.00 | 0.11 | 0.00 | 54 | 1012.9 |
| 20260905182530 | 97 | 293 | 1.7 | 5.2 | 0.00 | 0.11 | 0.00 | 55 | 1013.0 |
| 20260905181546 | 97 | 328 | 0.9 | 1.7 | 0.00 | 0.11 | 0.00 | 53 | 1013.1 |
| 20260905180524 | 98 | 140 | 0.9 | 2.6 | 0.00 | 0.11 | 0.00 | 55 | 1013.3 |
| 20260905175517 | 97 | 141 | 0.9 | 1.7 | 0.00 | 0.11 | 0.00 | 55 | 1013.3 |
| 20260905174613 | 96 | 135 | 0.9 | 2.6 | 0.00 | 0.11 | 0.00 | 56 | 1013.4 |
| 20260905173529 | 96 | 286 | 1.7 | 3.5 | 0.00 | 0.11 | 0.00 | 55 | 1013.5 |
| 20260905172525 | 96 | 287 | 0.9 | 5.2 | 0.00 | 0.11 | 0.00 | 58 | 1013.6 |
| 20260905171521 | 95 | 293 | 0.9 | 2.6 | 0.00 | 0.11 | 0.00 | 60 | 1013.8 |
| 20260905170517 | 95 | 250 | 0.9 | 3.5 | 0.00 | 0.11 | 0.00 | 61 | 1013.8 |
| 20260905165554 | 94 | 221 | 0.9 | 5.2 | 0.00 | 0.11 | 0.00 | 60 | 1013.9 |
| 20260905164530 | 94 | 222 | 0.9 | 2.6 | 0.00 | 0.11 | 0.00 | 63 | 1014.1 |
| 20260905163546 | 94 | 282 | 0.9 | 5.2 | 0.00 | 0.11 | 0.00 | 62 | 1014.2 |
| 20260905162521 | 93 | 276 | 1.7 | 2.6 | 0.00 | 0.11 | 0.00 | 64 | 1014.4 |
| 20260905161518 | 93 | 276 | 0.9 | 1.7 | 0.00 | 0.11 | 0.00 | 64 | 1014.5 |
| 20260905160534 | 92 | 276 | 0.9 | 0.9 | 0.00 | 0.11 | 0.00 | 65 | 1014.5 |
| 20260905155530 | 91 | 276 | 0.9 | 2.6 | 0.00 | 0.11 | 0.00 | 66 | 1014.7 |
| 20260905154546 | 91 | 276 | 0.9 | 1.7 | 0.00 | 0.11 | 0.00 | 68 | 1014.7 |
| 20260905153541 | 90 | 276 | 0.0 | 1.7 | 0.00 | 0.11 | 0.00 | 69 | 1014.7 |
| 20260905152518 | 90 | 276 | 0.9 | 2.6 | 0.00 | 0.11 | 0.00 | 71 | 1014.8 |
| 20260905151534 | 89 | 276 | 0.9 | 2.6 | 0.00 | 0.11 | 0.00 | 72 | 1014.6 |
| 20260905150529 | 88 | 276 | 0.9 | 2.6 | 0.00 | 0.11 | 0.00 | 75 | 1014.7 |
| 20260905145525 | 86 | 276 | 0.9 | 1.7 | 0.00 | 0.11 | 0.00 | 77 | 1014.7 |
| 20260905144521 | 86 | 276 | 0.0 | 0.9 | 0.00 | 0.11 | 0.00 | 77 | 1014.9 |
| 20260905143517 | 85 | 276 | 0.0 | 0.9 | 0.00 | 0.11 | 0.00 | 78 | 1014.7 |
| 20260905142534 | 85 | 276 | 0.9 | 1.7 | 0.00 | 0.11 | 0.00 | 81 | 1015.0 |
| 20260905141529 | 84 | 276 | 0.9 | 0.9 | 0.00 | 0.11 | 0.00 | 82 | 1015.1 |